• In United Kingdom
  • List of Countries
  • For 7 days
  • Water Temperature
  • Satellite Maps
  • Weather Map
  • Weather Widgets
  • user-avatar
    Login

    Hourly Weather Sleszyn

    Today, 23 October, Tuesday

    Time Temperature Precipitation Wind Pressure Humidity
    00:00 +5°C° 0 mm 4 mps 757 mmHg 87%
    01:00 +4°C° 0 mm 4 mps 757 mmHg 89%
    02:00 +4°C° 0 mm 4 mps 757 mmHg 88%
    03:00 +4°C° 0 mm 4 mps 756 mmHg 88%
    04:00 +3°C° 0 mm 5 mps 755 mmHg 87%
    05:00 +3°C° 0 mm 5 mps 755 mmHg 84%
    06:00 +3°C° 0 mm 6 mps 754 mmHg 81%
    07:00 +4°C° 0 mm 7 mps 753 mmHg 79%
    08:00 +4°C° 0.3 mm 8 mps 751 mmHg 75%
    09:00 +5°C° 0.3 mm 9 mps 750 mmHg 72%
    10:00 +5°C° 0.3 mm 10 mps 749 mmHg 68%
    11:00 +4°C° 1.3 mm 11 mps 747 mmHg 71%
    12:00 +4°C° 1.3 mm 11 mps 746 mmHg 74%
    13:00 +4°C° 1.3 mm 12 mps 745 mmHg 76%
    14:00 +5°C° 0.8 mm 12 mps 743 mmHg 77%
    15:00 +5°C° 0.8 mm 12 mps 742 mmHg 78%
    16:00 +5°C° 0.8 mm 12 mps 741 mmHg 79%
    17:00 +7°C° 1.2 mm 11 mps 740 mmHg 81%
    18:00 +7°C° 1.2 mm 10 mps 739 mmHg 83%
    19:00 +8°C° 1.2 mm 9 mps 738 mmHg 86%
    20:00 +8°C° 0.6 mm 9 mps 738 mmHg 83%
    21:00 +7°C° 0.6 mm 9 mps 738 mmHg 79%
    22:00 +7°C° 0.6 mm 9 mps 738 mmHg 76%
    23:00 +7°C° 0.2 mm 9 mps 737 mmHg 75%

    Tomorrow, 24 October, Wednesday

    Time Temperature Precipitation Wind Pressure Humidity
    00:00 +6°C° 0.2 mm 9 mps 737 mmHg 74%
    01:00 +6°C° 0.2 mm 9 mps 737 mmHg 73%
    02:00 +5°C° 0.2 mm 9 mps 737 mmHg 71%
    03:00 +5°C° 0.2 mm 9 mps 737 mmHg 69%
    04:00 +5°C° 0.2 mm 10 mps 737 mmHg 67%
    05:00 +5°C° 0.3 mm 10 mps 738 mmHg 67%
    06:00 +3°C° 0.3 mm 9 mps 739 mmHg 66%
    07:00 +3°C° 0.3 mm 9 mps 739 mmHg 65%
    08:00 +5°C° 0 mm 10 mps 740 mmHg 59%
    09:00 +5°C° 0 mm 10 mps 741 mmHg 53%
    10:00 +4°C° 0 mm 11 mps 741 mmHg 47%
    11:00 +4°C° 0 mm 11 mps 742 mmHg 47%
    12:00 +6°C° 0 mm 11 mps 742 mmHg 48%
    13:00 +6°C° 0 mm 11 mps 743 mmHg 48%
    14:00 +5°C° 0 mm 10 mps 743 mmHg 49%
    15:00 +5°C° 0 mm 10 mps 744 mmHg 51%
    16:00 +5°C° 0 mm 9 mps 744 mmHg 53%
    17:00 +5°C° 0 mm 9 mps 745 mmHg 55%
    18:00 +4°C° 0 mm 8 mps 746 mmHg 57%
    19:00 +4°C° 0 mm 8 mps 747 mmHg 59%
    20:00 +2°C° 0 mm 8 mps 747 mmHg 61%
    21:00 +3°C° 0 mm 7 mps 748 mmHg 62%
    22:00 +3°C° 0 mm 7 mps 748 mmHg 64%
    23:00 +3°C° 0 mm 6 mps 748 mmHg 65%

    Day after tomorrow, 25 October, Thursday

    Time Temperature Precipitation Wind Pressure Humidity
    00:00 +2°C° 0 mm 6 mps 748 mmHg 67%
    01:00 +2°C° 0 mm 6 mps 748 mmHg 68%
    02:00 +2°C° 0 mm 6 mps 748 mmHg 70%
    03:00 +2°C° 0 mm 5 mps 748 mmHg 72%
    04:00 +2°C° 0 mm 5 mps 747 mmHg 74%
    05:00 +2°C° 0.2 mm 5 mps 747 mmHg 76%
    06:00 +2°C° 0.2 mm 5 mps 746 mmHg 78%
    07:00 +3°C° 0.2 mm 5 mps 745 mmHg 80%
    08:00 +3°C° 0.7 mm 6 mps 745 mmHg 83%
    09:00 +4°C° 0.7 mm 6 mps 744 mmHg 86%
    10:00 +5°C° 0.7 mm 6 mps 743 mmHg 90%
    11:00 +6°C° 0.5 mm 7 mps 742 mmHg 87%
    12:00 +9°C° 0.5 mm 8 mps 742 mmHg 84%
    13:00 +9°C° 0.5 mm 10 mps 741 mmHg 82%
    14:00 +10°C° 0.2 mm 9 mps 741 mmHg 79%
    15:00 +8°C° 0.2 mm 9 mps 742 mmHg 76%
    16:00 +8°C° 0.2 mm 9 mps 742 mmHg 73%
    17:00 +9°C° 0.1 mm 8 mps 742 mmHg 73%
    18:00 +7°C° 0.1 mm 8 mps 743 mmHg 73%
    19:00 +6°C° 0.1 mm 8 mps 743 mmHg 73%
    20:00 +6°C° 0 mm 7 mps 744 mmHg 75%
    21:00 +6°C° 0 mm 7 mps 744 mmHg 77%
    22:00 +5°C° 0 mm 6 mps 745 mmHg 79%
    23:00 +5°C° 0 mm 6 mps 745 mmHg 80%

    26 October, Friday

    Time Temperature Precipitation Wind Pressure Humidity
    00:00 +5°C° 0 mm 6 mps 745 mmHg 82%
    01:00 +4°C° 0 mm 6 mps 745 mmHg 83%
    02:00 +4°C° 0 mm 6 mps 745 mmHg 84%
    03:00 +5°C° 0 mm 5 mps 745 mmHg 85%
    04:00 +5°C° 0 mm 5 mps 745 mmHg 87%
    05:00 +5°C° 0 mm 5 mps 746 mmHg 88%
    06:00 +3°C° 0 mm 5 mps 746 mmHg 88%
    07:00 +4°C° 0 mm 4 mps 746 mmHg 89%
    08:00 +5°C° 0 mm 5 mps 746 mmHg 84%
    09:00 +6°C° 0 mm 5 mps 746 mmHg 79%
    10:00 +8°C° 0 mm 5 mps 746 mmHg 73%
    11:00 +8°C° 0 mm 5 mps 745 mmHg 73%
    12:00 +8°C° 0 mm 5 mps 744 mmHg 74%
    13:00 +9°C° 0 mm 5 mps 744 mmHg 74%
    14:00 +9°C° 0 mm 5 mps 743 mmHg 77%
    15:00 +10°C° 0 mm 4 mps 743 mmHg 80%
    16:00 +10°C° 0 mm 4 mps 742 mmHg 83%
    17:00 +10°C° 0.1 mm 4 mps 742 mmHg 81%
    18:00 +9°C° 0.1 mm 5 mps 742 mmHg 80%
    19:00 +9°C° 0.1 mm 6 mps 741 mmHg 78%
    20:00 +9°C° 0 mm 6 mps 741 mmHg 77%
    21:00 +8°C° 0 mm 7 mps 741 mmHg 75%
    22:00 +8°C° 0 mm 7 mps 741 mmHg 74%
    23:00 +7°C° 0 mm 8 mps 741 mmHg 73%

    27 October, Saturday

    Time Temperature Precipitation Wind Pressure Humidity
    00:00 +7°C° 0 mm 8 mps 741 mmHg 73%
    01:00 +6°C° 0 mm 9 mps 741 mmHg 73%
    02:00 +6°C° 0 mm 9 mps 741 mmHg 72%
    03:00 +5°C° 0 mm 9 mps 741 mmHg 71%
    04:00 +5°C° 0 mm 9 mps 742 mmHg 70%
    05:00 +3°C° 0 mm 9 mps 742 mmHg 71%
    06:00 +3°C° 0 mm 9 mps 742 mmHg 72%
    07:00 +3°C° 0 mm 9 mps 743 mmHg 72%
    08:00 +3°C° 0 mm 9 mps 743 mmHg 69%
    09:00 +5°C° 0 mm 9 mps 744 mmHg 66%
    10:00 +5°C° 0 mm 9 mps 744 mmHg 64%
    11:00 +5°C° 0 mm 8 mps 745 mmHg 63%
    12:00 +6°C° 0 mm 8 mps 745 mmHg 62%
    13:00 +6°C° 0 mm 7 mps 745 mmHg 61%
    14:00 +7°C° 0 mm 6 mps 746 mmHg 62%
    15:00 +6°C° 0 mm 5 mps 746 mmHg 63%
    16:00 +6°C° 0 mm 4 mps 746 mmHg 63%
    17:00 +7°C° 0 mm 3 mps 747 mmHg 66%
    18:00 +5°C° 0 mm 3 mps 748 mmHg 69%
    19:00 +6°C° 0 mm 2 mps 748 mmHg 72%
    20:00 +5°C° 0 mm 2 mps 748 mmHg 74%
    21:00 +5°C° 0 mm 2 mps 749 mmHg 76%
    22:00 +6°C° 0 mm 1 mps 749 mmHg 78%
    23:00 +5°C° 0 mm 1 mps 749 mmHg 79%

    28 October, Sunday

    Time Temperature Precipitation Wind Pressure Humidity
    00:00 +5°C° 0 mm 1 mps 749 mmHg 79%
    01:00 +5°C° 0 mm 1 mps 749 mmHg 79%
    02:00 +5°C° 0 mm 1 mps 750 mmHg 79%
    03:00 +5°C° 0 mm 1 mps 750 mmHg 79%
    04:00 +5°C° 0 mm 1 mps 750 mmHg 78%
    05:00 +4°C° 0 mm 2 mps 750 mmHg 79%
    06:00 +4°C° 0 mm 2 mps 751 mmHg 79%
    07:00 +4°C° 0 mm 2 mps 751 mmHg 79%
    08:00 +5°C° 0 mm 2 mps 751 mmHg 77%
    09:00 +4°C° 0 mm 3 mps 751 mmHg 74%
    10:00 +5°C° 0 mm 3 mps 751 mmHg 72%
    11:00 +5°C° 0.3 mm 4 mps 751 mmHg 72%
    12:00 +5°C° 0.3 mm 4 mps 750 mmHg 72%
    13:00 +5°C° 0.3 mm 5 mps 750 mmHg 72%
    14:00 +5°C° 0.9 mm 5 mps 750 mmHg 74%
    15:00 +5°C° 0.9 mm 5 mps 750 mmHg 76%
    16:00 +3°C° 0.9 mm 6 mps 750 mmHg 78%
    17:00 +3°C° 0.7 mm 6 mps 750 mmHg 78%
    18:00 +3°C° 0.7 mm 6 mps 750 mmHg 79%
    19:00 +3°C° 0.7 mm 7 mps 750 mmHg 80%
    20:00 +3°C° 0.2 mm 7 mps 749 mmHg 80%
    21:00 +2°C° 0.2 mm 8 mps 749 mmHg 80%
    22:00 +2°C° 0.2 mm 8 mps 749 mmHg 81%
    23:00 +2°C° 1.4 mm 8 mps 748 mmHg 81%

    29 October, Monday

    Time Temperature Precipitation Wind Pressure Humidity
    00:00 +2°C° 1.4 mm 8 mps 748 mmHg 81%
    01:00 +2°C° 1.4 mm 8 mps 747 mmHg 82%
    02:00 +1°C° 1.8 mm 9 mps 747 mmHg 82%
    03:00 +1°C° 1.8 mm 9 mps 746 mmHg 82%
    04:00 +1°C° 1.8 mm 9 mps 746 mmHg 83%
    05:00 +1°C° 1.5 mm 9 mps 746 mmHg 84%
    06:00 +1°C° 1.5 mm 9 mps 745 mmHg 85%
    07:00 +1°C° 1.5 mm 9 mps 745 mmHg 86%
    08:00 +1°C° 1.5 mm 9 mps 745 mmHg 86%
    09:00 +1°C° 1.5 mm 9 mps 745 mmHg 87%
    10:00 +1°C° 1.5 mm 9 mps 744 mmHg 87%
    11:00 +1°C° 1.4 mm 8 mps 744 mmHg 88%
    12:00 +1°C° 1.4 mm 8 mps 744 mmHg 89%
    13:00 +2°C° 1.4 mm 7 mps 743 mmHg 90%
    14:00 +2°C° 1.3 mm 7 mps 743 mmHg 90%
    15:00 +2°C° 1.3 mm 7 mps 743 mmHg 91%
    16:00 +3°C° 1.3 mm 6 mps 742 mmHg 91%
    17:00 +3°C° 0.6 mm 6 mps 742 mmHg 92%
    18:00 +3°C° 0.6 mm 6 mps 742 mmHg 92%
    19:00 +3°C° 0.6 mm 5 mps 742 mmHg 92%
    20:00 +3°C° 0.1 mm 5 mps 743 mmHg 93%
    21:00 +3°C° 0.1 mm 5 mps 743 mmHg 93%
    22:00 +4°C° 0.1 mm 4 mps 743 mmHg 94%
    23:00 +5°C° 0 mm 4 mps 742 mmHg 94%
    Show more